Theta_e
300 299 300 299 299 299 299 302 309 309 312 312 313 311 306 306 306 306 306 305 305 305
301 300 300 300 301 301 304 309 310 309 310 311 311 307 304 305 305 305 305 305 305 305
302 305 305 302 303 304 306 308 307 306 307 309 307 307 306 305 307 304 305 305 304 304
301 302 304 302 302 305 306 307 307 305 305 306 305 304 307 308 308 307 307 306 306 304
301 301 300 301 302 302 302 303 303 304 304 303 303 304 305 307 308 308 307 309 306 306
301 301 300 301 302 302 302 302 303 303 302 301 302 302 303 304 305 305 306 304 303 302
301 305 305 304 302 301 302 302 303 303 301 301 301 302 303 304 303 304 305 304 303 302
302 303 304 304 304 305 302 302 303 303 301 300 301 303 302 301 301 302 303 304 305 304
303 304 304 303 304 303 302 305 306 306 302 299 302 303 306 304 301 303 302 302 303 304
304 304 307 306 306 306 306 304 305 305 304 300 300 302 302 306 302 302 302 302 302 304
305 304 305 306 303 303 306 302 301 301 299 298 300 301 300 302 302 301 302 302 302 302
305 305 307 307 307 303 301 302 302 301 300 299 299 300 299 300 300 302 302 303 301 300
307 305 307 308 308 308 305 303 304 303 301 304 300 298 298 299 300 300 302 303 301 302
307 305 305 303 307 307 306 307 304 302 301 299 297 295 297 298 299 300 302 303 302 302
Wind_Speed
6 4 3 4 4 4 3 5 5 5 5 7 6 4 5 3 4 4 4 5 3 2
5 6 5 6 4 3 4 5 6 5 5 6 5 5 5 3 5 5 4 4 5 3
6 6 5 5 6 6 6 6 6 6 5 5 6 6 5 4 3 5 4 3 6 3
6 7 6 5 6 5 5 6 6 6 6 6 6 6 5 5 5 5 5 5 6 6
6 7 6 6 6 6 6 6 5 5 6 6 6 6 6 6 5 5 5 6 7 6
6 5 6 6 6 6 6 6 6 6 6 6 6 6 6 5 6 6 6 6 6 5
6 5 5 4 5 6 6 6 6 5 5 5 5 5 6 6 6 6 5 5 5 4
6 5 5 5 5 5 5 4 5 5 5 5 5 4 5 5 5 5 4 4 3 1
6 6 5 5 3 4 4 4 4 4 5 5 3 8 9 4 4 3 3 3 3 3
6 6 5 4 4 4 5 5 5 4 4 5 5 9 8 7 4 4 4 4 4 4
5 6 5 5 4 4 4 5 4 5 4 3 3 6 6 7 4 4 6 6 6 5
5 6 5 6 6 3 3 3 3 2 3 4 5 8 8 6 5 4 5 4 3 4
4 5 6 6 5 4 3 3 3 2 3 2 4 8 9 4 1 4 3 4 5 7
6 6 6 5 5 4 3 3 4 4 3 3 4 6 8 9 3 1 2 2 4 4
Wind_Direction
351 344 329 323 319 321 314 313 311 337 28 37 32 33 23 18 11 26 58 87 85 96
346 345 335 333 319 307 313 326 354 13 28 24 17 29 26 12 11 28 43 63 80 82
342 337 341 339 345 356 338 336 354 7 27 23 23 13 14 0 358 46 25 58 77 71
345 344 345 350 347 353 338 350 4 4 29 40 29 15 20 15 16 62 60 53 71 60
348 354 355 356 349 356 3 358 356 13 53 41 28 21 21 19 20 43 72 60 60 44
351 350 358 359 358 4 9 4 16 49 51 36 24 15 9 26 41 46 62 63 62 44
346 340 345 7 19 17 14 15 19 45 44 41 31 23 13 28 37 53 62 63 71 71
335 337 346 6 10 5 26 27 32 41 35 28 28 17 21 38 58 67 55 42 56 124
358 338 358 8 22 2 354 25 42 47 57 38 16 7 28 68 64 56 57 41 25 12
2 7 6 21 17 6 348 1 22 37 50 39 13 10 16 32 29 18 5 8 3 349
5 351 340 344 350 345 345 354 22 49 51 43 356 354 359 353 347 336 317 308 320 311
1 344 343 359 349 5 35 15 26 51 38 19 350 342 346 357 345 325 304 306 311 289
351 343 337 336 352 346 47 59 67 44 12 345 6 357 351 351 358 5 330 309 297 285
347 350 352 352 359 359 22 72 72 82 36 13 11 356 357 5 28 356 339 320 302 293